FENGYUN 1C DEB, 31905

Orbit data source: Space-Track

FENGYUN 1C DEB, 31905 is space debris in SSO originally from a launch on Mon, 10 May 1999 UTC launched from the Taiyaun Space Center, China (TSC). Fengyun 1C debris stems from the Chinese weather satellite Fengyun-1C, which was intentionally destroyed by a Chinese anti-satellite missile in 2007. This event dramatically increased the amount of space debris, with thousands of trackable fragments posing hazards to satellites and human spaceflight. The Fengyun 1C debris cloud has become a focal point in discussions about space sustainability and the need for international regulations to prevent the creation of new debris.

Loading next visibility...
Identifier
31905, 1999-025CLG
Orbit
SSO
Country
Flag of CNCN / PRC
Related business
Manufacturer
Unknown
Mission
Spacecraft
Bus & Motor
Unknown
Mass
Unknown
Launch date (UTC)
1999-05-10 (27 years ago)
Launch vehicle
Unknown
Launch site
Taiyaun Space Center, China (TSC)
Object type
Payload
Rocket body
Debris
Shape & HBR
Unknown shape, 0.1 m
Radar Cross Section
Small (<0.1 m²)

Expand to show TLE details & history
Last TLE update: 15 hours ago

TLE from 15 hours ago
0 FENGYUN 1C DEB
1 31905U 99025CLG 26149.92896456  .00002124  00000-0  63501-3 0  9991
2 31905  99.1661 141.0472 0193356 325.3469  33.5238 14.33882133990345
Epoch: 2026-05-29T22:17Z
TLE epoch observation values (Epoch: 2026-05-29T22:17:42.537Z)
Latitude
-0.00007°
Longitude
-80.83233°
Altitude
667.153 km
Speed
7.583 km/s
True Right ascension
09h 24m 11s
True Declination
0° 00' 00"
Sunlit
Object was in daylight at epoch
Visualization orbit readout
Latitude
Unknown
Longitude
Unknown
Altitude
Unknown
Speed
Unknown
Apparent Right ascension
Unknown
Apparent Declination
Unknown
Sunlit
N/A
Visualization observer readout
Local Sidereal Time
22:27:34
Azimuth
Unknown
Elevation
Unknown
Doppler factor
Unknown
Orbital elements
Apogee altitude
914.273 km
Perigee altitude
637.616 km
Semi-major axis
7,154.082 km
Eccentricity
0.01934
Inclination
99.1661°
RAAN
141.0472°
Arg. of periapsis
325.3469°
True anomaly
34.77254°
Mean anomaly
33.5238°
Eccentric anomaly
34.14563°
Mean motion
3.58684 °/min
Orbital period
100.37 mins
BSTAR
0.00063501
Loading maneuver chart data...
Computing Atmospheric mass density...

Documentation

Showing up to 5 results
|